Weather in Zarechye

Russia / Kursk Oblast     51°33′11″N   37°20′10″E
temp.,
°C
wind,
m/s
gust,
m/s
humid.,
%
clouds,
%
prec.,
mm/h
press.,
hPa
HPBL,
m
25 february, thu
thu2500:00−10ssw4995100 0.4 1033298
03:00−8sw4895100 0.7 1031263
06:00−7sw5995100 0.1 1029253
09:00−3sw61196100 0.2 1027364
12:00+1wsw61299100 0.0 1025390
15:00+2wsw714100100 0.1 1023370
18:00+2w61399100 0.3 1021333
21:00+2w51299100 0.4 1022310
26 february, fri
fri2600:00+2w51199100 0.3 1021282
03:00+2wnw61298100 0.3 1022307
06:00+2w51099100 0.0 1020279
09:00+2w61298100 0.0 1020329
12:00+2wsw713100100 0.0 1018371
15:00+2w815100100 0.0 1016492
18:00+2w71498100 0.0 1015435
21:00+2w61497100 0.1 1014388
27 february, sat
sat2700:00+1w61395100 0.0 1013405
03:00+1w51096100 0.0 1012362
06:00+1w61297100 0.0 1010473
09:00+1wnw61298100 0.1 1010573
12:00+1w61199100 0.1 1009615
15:00+1w61298100 0.3 1010559
18:00+1wnw61097100 0.1 1010463
21:000wnw5998100 0.3 1011412
28 february, sun
sun2800:000nw4698100 0.2 1011317
03:00−1nnw389795 0.6 1012296
06:00−2n499691 0.0 1014298
09:00−1n489095 0.1 1016767
12:00−1n588797 0.1 1017745
15:00−1n588598 0.2 1019805
18:00−2nnw379398 0.1 1020435
21:00−2nnw599397 0.3 1023462
1 march, mon
mon100:00−3n599481 0.1 1024458
03:00−4nnw379582 0.1 1026241
06:00−4n369599 0.1 1027346
09:00−4n249495 0.2 1029276
12:00−2n458181 0.1 1030788
15:00−2nnw357789 0.1 1031861
18:00−4wnw238846 0.0 103171
21:00−5wnw369134 0.0 1031149